EW5795 Weather Reports


Display with metric or nautical units.
time (UTC)temp
F
wind
direction
speed
MPH
gust
MPH
rain 1hr
in
rain 24hr
in
rain mn
in
humidity
%
barometer
mb
20260507064525 54 333 1.0 6.0 0.00 0.00 0.00 75 1014.6
20260507063025 53 7 2.0 4.0 0.00 0.00 0.00 77 1014.6
20260507061517 52 36 1.0 4.0 0.00 0.00 0.00 82 1014.5
20260507060011 48 7 0.0 3.0 0.00 0.00 0.00 89 1014.5
20260507054512 44 358 1.0 2.0 0.00 0.00 0.00 90 1014.3
20260507053004 43 348 0.0 2.0 0.00 0.00 0.00 90 1014.2
20260507051600 42 339 0.0 2.0 0.00 0.00 0.00 90 1014.0
20260507050057 41 344 0.0 2.0 0.00 0.00 0.00 89 1014.0
20260507044557 41 344 0.0 3.0 0.00 0.00 0.00 89 1013.7
20260507043049 41 353 1.0 2.0 0.00 0.00 0.00 89 1013.6
20260507041551 40 28 0.0 2.0 0.00 0.00 0.00 89 1013.6
20260507040045 41 15 0.0 3.0 0.00 0.00 0.00 89 1013.5
20260507034551 41 353 1.0 2.0 0.00 0.00 0.00 89 1013.5
20260507033044 41 353 0.0 3.0 0.00 0.00 0.00 89 1013.4
20260507031551 41 19 0.0 3.0 0.00 0.00 0.00 89 1013.2
20260507030048 41 14 0.0 3.0 0.00 0.00 0.00 88 1013.2
20260507024542 41 11 0.0 2.0 0.00 0.00 0.00 88 1013.2
20260507023035 42 11 0.0 2.0 0.00 0.00 0.00 88 1013.2
20260507021535 41 17 0.0 3.0 0.00 0.00 0.00 88 1013.1
20260507020032 42 16 0.0 1.0 0.00 0.00 0.00 87 1013.0
20260507014544 42 16 0.0 2.0 0.00 0.00 0.00 86 1012.9
20260507013029 42 16 0.0 1.0 0.00 0.00 0.00 85 1012.8
20260507011529 42 16 0.0 2.0 0.00 0.00 0.00 85 1012.9
20260507010029 43 21 0.0 3.0 0.00 0.00 0.00 84 1012.8
20260507004524 44 28 0.0 2.0 0.00 0.00 0.00 84 1012.8
20260507003022 44 28 0.0 2.0 0.00 0.00 0.00 83 1012.8
20260507001525 45 55 0.0 3.0 0.00 0.00 0.00 83 1012.8
20260507000119 45 61 0.0 3.0 0.00 0.00 0.00 83 1012.8
20260506234517 45 66 1.0 7.0 0.00 0.00 0.00 83 1012.9
20260506233017 46 76 2.0 6.0 0.00 0.00 0.00 83 1012.9
20260506231514 46 65 1.0 5.0 0.00 0.00 0.00 83 1012.8
20260506230013 46 78 2.0 5.0 0.00 0.00 0.00 83 1012.8
20260506224510 46 84 2.0 5.0 0.00 0.00 0.00 83 1012.7
20260506223008 46 83 2.0 6.0 0.00 0.00 0.00 83 1012.6
20260506221507 46 96 2.0 8.0 0.00 0.00 0.00 82 1012.6
20260506220014 47 61 3.0 7.0 0.00 0.00 0.00 82 1012.5
20260506214502 47 87 4.0 9.0 0.00 0.00 0.00 82 1012.4
20260506213122 47 100 2.0 10.0 0.00 0.00 0.00 82 1012.3
20260506211557 48 90 4.0 10.0 0.00 0.00 0.00 82 1012.2
20260506210057 48 87 2.0 11.0 0.00 0.00 0.00 81 1012.1
20260506204555 49 54 2.0 10.0 0.00 0.00 0.00 81 1012.1
20260506203053 49 67 3.0 10.0 0.00 0.00 0.00 80 1011.9
20260506201552 50 54 3.0 10.0 0.00 0.00 0.00 79 1011.8
20260506200050 50 51 2.0 9.0 0.00 0.00 0.00 78 1011.7
20260506194550 50 336 1.0 5.0 0.00 0.00 0.00 78 1011.4
20260506193048 51 84 2.0 7.0 0.00 0.00 0.00 76 1011.3
20260506191545 51 53 1.0 5.0 0.00 0.00 0.00 75 1011.1
20260506190043 52 3 2.0 11.0 0.00 0.00 0.00 73 1010.9
20260506184542 53 27 2.0 11.0 0.00 0.00 0.00 71 1010.7
20260506183041 54 309 3.0 12.0 0.00 0.00 0.00 70 1010.6
20260506181539 55 110 2.0 11.0 0.00 0.00 0.00 67 1010.5
20260506180046 56 47 3.0 14.0 0.00 0.00 0.00 64 1010.3
20260506174541 55 312 1.0 11.0 0.00 0.00 0.00 66 1010.1
20260506173038 55 68 5.0 13.0 0.00 0.00 0.00 65 1009.9
20260506171537 55 77 4.0 11.0 0.00 0.00 0.00 65 1009.9
20260506170034 56 52 3.0 13.0 0.00 0.00 0.00 65 1009.8
20260506164534 56 96 5.0 16.0 0.00 0.00 0.00 65 1009.8
20260506163055 57 54 7.0 16.0 0.00 0.00 0.00 64 1009.6
20260506161534 58 51 3.0 15.0 0.00 0.00 0.00 66 1009.6
20260506160033 59 46 5.0 13.0 0.00 0.00 0.00 63 1009.7
20260506154531 60 38 5.0 12.0 0.00 0.00 0.00 63 1009.5
20260506153031 60 83 3.0 11.0 0.00 0.00 0.00 64 1009.5
20260506151530 61 136 4.0 13.0 0.00 0.00 0.00 63 1009.4
20260506150029 60 33 6.0 19.0 0.00 0.00 0.00 64 1009.4
20260506144528 61 153 5.0 14.0 0.00 0.00 0.00 66 1009.4
20260506143035 58 30 5.0 16.0 0.00 0.00 0.00 68 1009.3
20260506141529 58 88 4.0 19.0 0.00 0.00 0.00 67 1009.3
20260506140027 58 243 2.0 12.0 0.00 0.00 0.00 65 1009.2
20260506134526 60 172 4.0 14.0 0.00 0.00 0.00 63 1009.2
20260506133026 60 157 5.0 14.0 0.00 0.00 0.00 64 1009.1
20260506131524 59 24 4.0 11.0 0.00 0.00 0.00 68 1009.0
20260506130024 58 92 3.0 13.0 0.00 0.00 0.00 70 1009.0
20260506124523 58 259 2.0 16.0 0.00 0.00 0.00 69 1009.1
20260506123022 59 36 3.0 12.0 0.00 0.00 0.00 67 1008.9
20260506121519 59 61 5.0 12.0 0.00 0.00 0.00 66 1008.9
20260506120019 59 270 3.0 13.0 0.00 0.00 0.00 66 1008.9
20260506114518 59 87 5.0 12.0 0.00 0.00 0.00 66 1008.9
20260506113018 59 96 6.0 13.0 0.00 0.00 0.00 67 1008.8
20260506111517 58 81 4.0 15.0 0.00 0.00 0.00 63 1008.8
20260506110015 59 63 5.0 12.0 0.00 0.00 0.00 66 1008.8
20260506104515 58 21 6.0 19.0 0.00 0.00 0.00 67 1008.8
20260506103015 59 58 6.0 17.0 0.00 0.00 0.00 67 1008.8
20260506101511 59 63 3.0 14.0 0.00 0.00 0.00 69 1008.8
20260506100009 58 74 6.0 14.0 0.00 0.00 0.00 69 1008.7
20260506094506 57 59 3.0 16.0 0.00 0.00 0.00 72 1008.7
20260506093005 56 86 3.0 14.0 0.00 0.00 0.00 76 1008.6
20260506091502 55 65 2.0 12.0 0.00 0.00 0.00 77 1008.7
20260506090001 54 113 5.0 14.0 0.00 0.00 0.00 76 1008.6
20260506084501 54 63 5.0 13.0 0.00 0.00 0.00 75 1008.6
20260506083105 55 66 5.0 16.0 0.00 0.00 0.00 73 1008.5
20260506081559 57 41 4.0 12.0 0.00 0.00 0.00 73 1008.5
20260506073056 56 96 8.0 14.0 0.00 0.00 0.00 75 1008.3
20260506071553 56 55 8.0 16.0 0.00 0.00 0.00 76 1008.3